EDT,Max TemperatureF,Mean TemperatureF,Min TemperatureF,Max Dew PointF,MeanDew PointF,Min DewpointF,Max Humidity, Mean Humidity, Min Humidity, Max Sea Level PressureIn, Mean Sea Level PressureIn, Min Sea Level PressureIn, Max VisibilityMiles, Mean VisibilityMiles, Min VisibilityMiles, Max Wind SpeedMPH, Mean Wind SpeedMPH, Max Gust SpeedMPH,PrecipitationIn, CloudCover, Events, WindDirDegrees
2013-8-1,77,68,59,67,63,59,100,80,54,30.08,29.99,29.92,10,10,1,16,5,22,0.00,4,Rain,202
2013-8-2,80,72,64,70,66,63,100,85,65,29.92,29.85,29.81,10,9,0,22,7,29,0.00,5,Rain-Thunderstorm,208
2013-8-3,73,70,66,68,65,63,94,86,69,29.91,29.86,29.82,10,10,6,21,11,26,0.03,3,Rain-Thunderstorm,240
2013-8-4,77,67,57,64,58,54,94,72,45,29.88,29.83,29.78,10,10,8,21,6,26,0.02,2,Rain-Thunderstorm,306
2013-8-5,73,63,53,58,52,45,94,67,38,30.05,29.96,29.88,10,10,10,15,7,23,0.00,0,,311
2013-8-6,75,62,48,57,52,46,100,68,38,30.18,30.12,30.05,10,10,10,12,4,,0.04,1,,167
2013-8-7,75,62,50,63,53,48,100,70,38,30.21,30.18,30.16,10,10,7,14,3,21,0.00,0,,160
2013-8-8,78,68,59,70,65,54,94,80,65,30.16,30.11,30.07,10,10,7,22,9,30,0.03,6,Rain,208
2013-8-9,75,72,69,73,71,68,100,94,88,30.09,29.95,29.81,10,7,1,28,15,40,0.03,6,Rain-Thunderstorm,205
2013-8-10,82,72,62,72,65,55,100,76,45,30.02,29.90,29.82,10,8,0,20,10,24,0.00,2,Fog,270
2013-8-11,77,66,55,59,54,50,94,64,32,30.09,30.05,30.01,10,10,10,17,7,23,0.00,0,,294
2013-8-12,75,67,59,68,64,59,100,83,65,30.06,30.00,29.95,10,10,0,15,6,18,0.00,6,Fog-Rain,225
2013-8-13,71,68,64,70,66,64,100,95,83,29.95,29.82,29.68,10,6,0,12,4,,0.00,6,Fog-Rain-Thunderstorm,152
2013-8-14,73,66,60,65,56,50,100,69,39,29.96,29.77,29.68,10,9,0,18,8,29,0.00,3,Fog,290
2013-8-15,73,64,55,55,51,45,88,62,34,30.14,30.07,29.97,10,10,10,18,8,24,0.00,1,,279
2013-8-16,77,65,53,63,55,46,100,68,36,30.22,30.17,30.13,10,10,1,17,6,22,0.00,1,,239
2013-8-17,77,66,55,63,59,55,100,78,43,30.29,30.25,30.21,10,10,2,10,4,,0.00,0,,19
2013-8-18,75,65,55,64,59,55,100,82,52,30.29,30.22,30.10,10,9,3,9,2,,0.16,3,Rain,149
2013-8-19,80,68,57,66,61,55,100,80,51,30.10,30.03,29.97,10,10,7,14,6,18,0.00,2,,263
2013-8-20,82,72,62,67,64,61,100,76,51,30.11,30.06,29.99,10,10,1,14,6,16,0.01,2,Rain,262
2013-8-21,84,73,62,70,64,63,100,75,48,30.16,30.11,30.06,10,9,4,16,5,18,0.00,0,,254
2013-8-22,77,72,68,72,69,66,100,89,73,30.07,29.99,29.87,10,7,0,20,11,25,0.00,5,Fog-Thunderstorm,237
2013-8-23,75,68,60,68,61,54,100,76,50,30.10,29.95,29.83,10,9,5,21,11,32,0.00,4,Rain,1
2013-8-24,71,60,48,57,52,45,94,68,38,30.35,30.25,30.11,10,10,10,22,8,25,0.00,2,,24
2013-8-25,80,63,46,63,52,45,100,67,32,30.37,30.31,30.23,10,10,10,17,4,22,0.00,0,,253
2013-8-26,75,70,66,66,63,59,94,81,65,30.23,30.06,29.91,10,10,7,25,13,34,0.00,6,,241
2013-8-27,73,68,64,68,67,64,100,96,83,29.91,29.87,29.83,10,5,0,27,7,16,0.51,7,Fog-Rain,42
2013-8-28,77,70,64,68,66,64,100,92,73,29.96,29.90,29.85,10,5,0,22,5,,0.00,6,Fog,29
2013-8-29,66,62,59,65,62,55,100,93,82,30.05,30.01,29.93,10,8,1,17,9,21,0.00,7,,39
2013-8-30,73,64,55,66,62,55,100,87,68,30.02,29.94,29.88,10,10,6,16,8,23,0.00,6,,269
2013-8-31,73,70,68,70,68,66,100,91,80,29.90,29.87,29.85,10,8,3,18,14,29,0.00,8,,234